Regional Weather Roundup
Issued by NWS

Home | Current Version | Previous Version | Text Only | Print | Product List | Glossary On
Versions: 1 2 3 4 5 6 7 8 9 10 11 12 13 14 15 16 17 18 19 20 21 22 23 24 25 26 27 28 29 30 31 32 33 34 35 36 37 38 39 40 41 42 43 44 45 46 47 48 49 50
000
ASUS43 KMPX 181601
RWRMN
WEATHER ROUNDUP FOR MINNESOTA
NATIONAL WEATHER SERVICE TWIN CITIES/CHANHASSEN MN
1100 AM CDT THU SEP 18 2014


NOTE: "FAIR" INDICATES FEW OR NO CLOUDS BELOW 12,000 FEET WITH NO
SIGNIFICANT WEATHER AND/OR OBSTRUCTIONS TO VISIBILITY. N/A MEANS
CURRENT SKY AND/OR WEATHER CONDITIONS ARE NOT AVAILABLE.

MNZ060>063-068>070-181700-
   Twin Cities Metro

CITY           SKY/WX    TMP DP  RH WIND       PRES   REMARKS
TWIN CITIES    PTSUNNY   57  51  80 E9        30.10S
ST PAUL        CLOUDY    55  52  89 SE6       30.12S
CRYSTAL        SUNNY     60  49  66 E7        30.09S
BLAINE         CLOUDY    55  54  94 E7          N/A
LAKEVILLE      SUNNY     59  54  82 SE5       30.10S
SOUTH ST PAUL  CLOUDY    56  52  88 SE6       30.11S
LAKE ELMO      CLOUDY    55  54  94 SE7       30.12S
$$
MNZ001>005-007-008-013>017-022>024-027-028-181700-
   Northwest Minnesota

CITY           SKY/WX    TMP DP  RH WIND       PRES   REMARKS
BEMIDJI        SUNNY     52  43  70 SE10      30.06S
HALLOCK        CLOUDY    54  50  87 SE13      29.97F
ROSEAU         CLOUDY    48  45  87 SE12      30.02S
WARROAD        CLOUDY    48  45  87 SE10      30.03F
THIEF RVR FALL CLOUDY    52  48  87 SE10      30.01S
CROOKSTON      CLOUDY    54  52  94 SE10      30.00S
FOSSTON        SUNNY     57  52  82 SE7       30.02F
DETROIT LAKES  CLOUDY    50  48  93 SE13      30.04F
MOORHEAD       MOSUNNY   59  55  88 S10G17    30.00S
PARK RAPIDS    PTSUNNY   49  42  77 SE10      30.06F
MAHNOMEN       FAIR      54  49  83 SE10      30.01F
$$
MNZ006-009>011-018-025>026-181700-
   North Central Minnesota

CITY           SKY/WX    TMP DP  RH WIND       PRES   REMARKS
BAUDETTE       CLOUDY    45  44  97 VRB7      30.06S
FLAG ISLAND    CLOUDY    46  45  93 S16       30.03F
INTL FALLS     CLOUDY    46  42  86 SE8       30.09F
WASKISH        CLOUDY    46  46 100 CALM      30.06S
BIG FORK       CLOUDY    48  43  81 SE6       30.10S
LONGVILLE      PTSUNNY   50  43  76 SE5       30.09R
GRAND RAPIDS   CLOUDY    46  39  76 SE12G17   30.11S
CRANE LAKE     CLOUDY    46  37  71 SE5       30.14S
ORR            MOSUNNY   50  37  62 SE8       30.09S
COOK           CLOUDY    48  39  71 SE9       30.12S
WALKER         FAIR      49  42  75 SE6       30.07F
$$
MNZ012-019>021-037-181700-
   Northeast Minnesota

CITY           SKY/WX    TMP DP  RH WIND       PRES   REMARKS
DULUTH         PTSUNNY   47  39  74 E13       30.15S
ELY            CLOUDY    45  36  70 SE9       30.14S
HIBBING        CLOUDY    50  39  66 SE9       30.13S
EVELETH        PTSUNNY   46  37  71 SE9       30.14S
DULUTH HARBOR  CLOUDY    48  43  81 E7        30.18S
TWO HARBORS    CLOUDY    46  37  71 E13       30.15F
SILVER BAY     SUNNY     43  39  87 E7        30.17S
GRAND MARAIS     N/A     46  34  62 MISG      30.22R
G MARAIS ARPRT CLOUDY    39  30  70 SE8       30.19R
$$
MNZ029>031-032-039>041-046>048-054>057-064-181700-
   West Central Minnesota

CITY           SKY/WX    TMP DP  RH WIND       PRES   REMARKS
FERGUS FALLS   CLOUDY    54  48  82 SE13      30.03F
WHEATON        CLOUDY    52  50  93 SE14      30.03F FOG
MORRIS         CLOUDY    54  52  94 SE12      30.03F FOG
ALEXANDRIA     CLOUDY    49  48  97 SE12      30.07S FOG
ELBOW LAKE     PTSUNNY   55  50  85 SE12      30.03F
WADENA         CLOUDY    48  46  93 E8        30.06F
GLENWOOD       CLOUDY    50  48  93 E9        30.07S FOG
APPLETON       CLOUDY    55  54  94 SE10      30.04S FOG
BENSON         CLOUDY    54  52  94 S7        30.06R
ORTONVILLE     CLOUDY    54  52  94 SE10      30.02F FOG
MADISON        SUNNY     59  57  94 SE9       30.03S FOG
WILLMAR        CLOUDY    55  52  88 SE10      30.08S
$$
MNZ033>034-036-042>043-049>051-058-059-181700-
   Central Minnesota

CITY           SKY/WX    TMP DP  RH WIND       PRES   REMARKS
ST CLOUD       CLOUDY    53  48  83 E7        30.10S
SAUK CENTRE    CLOUDY    48  47  95 E6        30.09R FOG
PAYNESVILLE    CLOUDY    48  47  97 NE7       30.09S
AITKIN         CLOUDY    48  43  81 E7        30.11R
PINE RIVER     CLOUDY    46  43  87 E9        30.12F
BRAINERD       CLOUDY    47  44  90 SE10      30.11S
STAPLES        CLOUDY    46  43  87 SE6       30.08F
LONG PRAIRIE   CLOUDY    45  45 100 E7        30.09S FOG
LITTLE FALLS   CLOUDY    46  43  87 E6        30.10S
LITCHFIELD     CLOUDY    54  54 100 SE6       30.09S
BUFFALO        CLOUDY    54  48  80 CALM      30.11S
MAPLE LAKE     PTSUNNY   56  51  86 E6        30.10S
$$
MNZ037-044-045-052-053-181700-
   East Central Minnesota

CITY           SKY/WX    TMP DP  RH WIND       PRES   REMARKS
PRINCETON      CLOUDY    52  48  87 E6        30.11S
MORA           CLOUDY    45  45 100 CALM      30.14S FOG
CAMBRIDGE      CLOUDY    54  45  71 E6        30.10S
RUSH CITY      CLOUDY    51  48  91 SE3       30.12S
MOOSE LAKE     CLOUDY    45  41  87 CALM      30.13S
HINCKLEY       CLOUDY    46  46 100 NE3       30.13S FOG
CLOQUET        CLOUDY    46  37  71 E10       30.15R
MCGREGOR       CLOUDY    45  43  93 SE8       30.13F
$$
MNZ071>073-080-081-089-090-097-098-181700-
   Southwest Minnesota

CITY           SKY/WX    TMP DP  RH WIND       PRES   REMARKS
MONTEVIDEO     CLOUDY    57  57 100 S8        30.05F FOG
GRANITE FALLS  MOSUNNY   62  56  83 E7        30.06S
CANBY          MOSUNNY   62  57  83 SE7       30.03F
MARSHALL       MOSUNNY   66  55  68 SE7       30.03S
REDWOOD FALLS  SUNNY     64  56  75 SE9       30.05F
OLIVIA         SUNNY     61  54  77 SE7       30.05F
PIPESTONE      SUNNY     70  55  60 S15       30.04S
WINDOM         SUNNY     68  55  64 S13G18    30.06S
WORTHINGTON    CLOUDY    66  55  68 S15       30.07R
JACKSON        SUNNY     70  55  60 S14       30.08S
TRACY          PTSUNNY   69  58  67 S10G18    30.05S
SLAYTON        PTSUNNY   67  55  64 S13       30.06S
$$
MNZ065>067-074>077-082>085-091>093-181700-
   South Central Minnesota

CITY           SKY/WX    TMP DP  RH WIND       PRES   REMARKS
MANKATO        SUNNY     66  54  63 S7        30.08S
NEW ULM        SUNNY     64  57  77 S10       30.07S
ST JAMES       SUNNY     70  57  64 S10       30.08S
FAIRMONT       SUNNY     64  54  68 S13G18    30.08S
GLENCOE        SUNNY     60  52  74 E5        30.08S
FARIBAULT      SUNNY     70  54  56 SE5       30.10R
OWATONNA       SUNNY     68  55  64 SE7       30.09S
WASECA         SUNNY     66  50  55 SE8       30.11R
ALBERT LEA     SUNNY     66  55  68 S10       30.10S
$$
MNZ078>079-086>088-094>096-181700-
   Southeast Minnesota

CITY           SKY/WX    TMP DP  RH WIND       PRES   REMARKS
ROCHESTER      SUNNY     65  56  72 S8        30.13S
RED WING       CLOUDY    57  54  88 SE9       30.11S
STANTON        SUNNY     65  55  71 S5        30.09S
DODGE CENTER   SUNNY     66  57  72 S8        30.10F
WINONA         CLOUDY    54  54 100 E8        30.15S
AUSTIN         SUNNY     66  55  68 S10       30.11S
PRESTON        SUNNY     63  59  88 SE6       30.14S
$$
ABBREVIATIONS USED IN REMARKS
   TC - TEMPERATURES IN CELSIUS
  WCI - WIND CHILL INDEX
   HX - HEAT INDEX
  VSB - VISIBILITY
$$



USA.gov is the U.S. government's official web portal to all federal, state and local government web resources and services.